TimeCST,TemperatureF,Dew PointF,Humidity,Sea Level PressureIn,VisibilityMPH,Wind Direction,Wind SpeedMPH,Gust SpeedMPH,PrecipitationIn,Events,Conditions,WindDirDegrees,DateUTC
12:53 AM,23.0,18.0,81,30.48,9.0,South,3.5,-,N/A,,Clear,170,2013-01-04 06:53:00
1:53 AM,21.0,17.1,85,30.47,8.0,Calm,Calm,-,N/A,,Clear,0,2013-01-04 07:53:00
2:53 AM,19.9,16.0,85,30.47,8.0,South,3.5,-,N/A,,Clear,180,2013-01-04 08:53:00
3:53 AM,21.9,17.1,82,30.47,9.0,Calm,Calm,-,N/A,,Clear,0,2013-01-04 09:53:00
4:53 AM,19.9,16.0,85,30.47,8.0,South,3.5,-,N/A,,Clear,170,2013-01-04 10:53:00
7:53 AM,25.0,21.0,85,30.48,9.0,South,5.8,-,N/A,,Clear,180,2013-01-04 13:53:00
8:53 AM,28.9,23.0,78,30.48,8.0,SSW,5.8,-,N/A,,Clear,200,2013-01-04 14:53:00
9:53 AM,35.1,26.1,70,30.49,10.0,South,6.9,-,N/A,,Clear,190,2013-01-04 15:53:00
10:53 AM,42.1,24.1,49,30.48,10.0,SW,13.8,18.4,N/A,,Clear,230,2013-01-04 16:53:00
11:53 AM,45.0,24.1,44,30.45,10.0,SSW,10.4,-,N/A,,Mostly Cloudy,210,2013-01-04 17:53:00
12:53 PM,46.0,23.0,40,30.41,10.0,SW,15.0,21.9,N/A,,Overcast,230,2013-01-04 18:53:00
1:53 PM,46.9,23.0,39,30.39,10.0,SW,10.4,-,N/A,,Overcast,230,2013-01-04 19:53:00
2:53 PM,46.0,23.0,40,30.37,10.0,SW,13.8,-,N/A,,Overcast,230,2013-01-04 20:53:00
3:53 PM,45.0,24.1,44,30.36,10.0,SSW,9.2,-,N/A,,Scattered Clouds,210,2013-01-04 21:53:00
4:53 PM,46.0,25.0,44,30.36,10.0,SW,6.9,-,N/A,,Overcast,230,2013-01-04 22:53:00
5:53 PM,44.1,25.0,47,30.36,10.0,SSW,4.6,-,N/A,,Overcast,210,2013-01-04 23:53:00
6:53 PM,44.1,26.1,49,30.36,10.0,SSW,4.6,-,N/A,,Overcast,200,2013-01-05 00:53:00
7:53 PM,43.0,27.0,53,30.36,10.0,SSW,6.9,-,N/A,,Overcast,200,2013-01-05 01:53:00
8:53 PM,43.0,27.0,53,30.33,10.0,South,8.1,-,N/A,,Overcast,180,2013-01-05 02:53:00
9:53 PM,39.0,26.1,60,30.33,10.0,South,6.9,-,N/A,,Mostly Cloudy,190,2013-01-05 03:53:00
10:53 PM,39.0,27.0,62,30.32,10.0,South,4.6,-,N/A,,Overcast,170,2013-01-05 04:53:00
11:53 PM,41.0,28.0,60,30.30,10.0,South,8.1,-,N/A,,Overcast,170,2013-01-05 05:53:00